Temp
18 18 18 18 18 18 18 18 18 18 18 18 18 18 19 19 19 20 20 20 20 20 20 20 20 20 20 20 20 20 20 20 20 19 18 17 18 19 19 20 20 21 21 21 21 20 21 21 21 22 23 23 22 22 22 22 22 22 21 19 19 19 18 18 18 18 18 18 18 19 19 18 18 18 18 16 14 13 13 13 12 11 11 11 10 10 10 10
18 18 18 18 18 18 18 18 18 19 19 19 19 19 19 19 19 20 20 20 20 20 20 20 20 21 20 20 20 20 20 20 20 18 18 19 19 20 20 20 20 21 21 21 21 20 20 21 22 23 23 22 23 23 22 22 22 21 20 19 19 18 18 18 18 18 18 18 18 18 18 18 17 18 18 15 12 13 12 12 12 11 10 10 10 10 10 10
17 18 18 18 18 18 18 18 19 19 19 19 19 19 19 19 20 20 20 20 20 20 20 20 20 21 21 21 20 20 20 20 19 18 19 20 20 20 20 20 20 21 21 21 21 20 21 22 22 22 23 23 23 23 22 21 21 21 20 19 18 18 17 17 18 18 18 18 18 18 18 18 16 17 17 14 12 12 12 12 12 11 10 10 10 10 10 10
17 17 18 18 18 18 18 19 19 19 19 19 19 19 19 20 20 20 20 20 20 20 20 20 20 21 21 21 21 20 20 20 19 18 19 20 20 21 21 21 21 21 21 21 21 22 22 22 22 22 23 22 22 22 21 21 21 21 20 19 19 18 18 17 18 18 18 18 18 17 18 17 15 15 15 14 13 12 11 12 12 11 10 10 10 9 9 7
17 17 17 18 18 18 19 19 19 19 19 19 20 20 20 20 20 20 20 20 20 20 21 21 20 20 20 20 21 20 20 20 19 19 19 19 20 21 21 21 21 21 21 21 22 22 22 21 21 22 23 22 21 21 21 21 21 20 19 19 20 19 18 17 18 17 18 18 17 17 17 17 15 14 13 13 13 11 12 12 11 11 11 10 9 8 7 6
18 18 18 18 18 18 19 19 19 19 19 20 20 20 20 20 20 20 20 20 20 20 21 21 21 21 20 20 20 20 20 20 19 18 19 19 20 21 21 21 21 21 21 22 22 22 22 21 21 22 22 21 21 21 20 21 21 20 19 19 20 19 18 18 18 18 18 17 16 16 17 16 14 14 13 13 12 12 12 11 10 10 9 9 8 7 6 5
18 18 18 18 18 19 19 19 19 19 20 20 20 20 20 20 20 20 20 20 20 20 21 21 21 21 21 20 20 20 19 19 18 18 18 19 20 20 21 21 21 21 22 21 21 21 22 21 21 21 21 21 20 20 20 20 20 20 19 19 19 19 19 18 18 18 18 17 16 16 16 15 14 14 13 12 11 11 11 10 9 8 8 7 6 6 6 5
18 18 18 18 18 19 18 19 19 20 20 20 20 20 20 20 20 20 20 20 20 20 21 21 21 21 21 21 20 20 18 18 18 18 18 19 20 20 21 21 21 21 21 21 20 20 21 21 21 21 21 20 20 20 20 19 19 19 19 19 19 18 18 19 18 18 17 17 16 15 15 14 14 14 13 11 11 11 11 9 8 7 7 7 6 6 5 5
18 18 18 18 18 18 18 18 19 20 20 20 20 20 20 20 20 20 20 20 20 21 21 21 20 20 21 20 20 20 19 18 18 18 18 19 20 20 20 21 21 21 21 21 20 20 21 20 20 21 21 20 20 20 19 19 19 18 18 18 19 19 18 19 18 18 18 17 16 15 14 13 14 14 12 11 11 11 10 9 8 7 7 7 6 5 5 5
18 18 18 18 18 18 18 19 19 20 20 20 20 20 20 20 20 21 21 21 21 21 21 21 20 21 21 20 20 20 19 18 18 18 18 19 19 20 20 20 20 21 20 20 20 19 19 19 19 20 20 20 20 19 19 19 19 18 18 18 18 19 19 18 18 18 18 17 16 15 13 13 14 14 12 10 11 10 9 8 8 7 7 6 6 5 5 4
18 18 18 18 18 19 19 19 20 20 20 20 20 20 20 20 21 21 21 21 21 21 21 21 21 21 21 19 19 19 19 19 18 18 19 19 19 19 20 20 20 20 20 20 20 19 19 19 18 19 20 20 19 20 19 18 18 18 18 18 18 18 18 18 18 17 17 17 16 15 13 12 13 13 11 10 11 10 9 8 7 7 6 6 5 4 4 4
18 18 18 18 19 19 19 20 20 20 20 20 20 20 20 20 20 21 21 21 21 21 21 21 21 21 20 19 18 19 19 19 19 19 19 19 19 19 20 20 19 20 20 20 20 20 20 19 19 20 20 19 19 19 19 18 18 18 18 18 18 18 18 18 17 17 17 17 16 15 14 12 11 12 11 10 10 9 8 7 7 6 6 5 5 4 4 3
18 18 18 18 19 19 20 20 20 20 20 20 20 20 20 20 20 21 21 21 21 21 21 21 21 21 21 19 19 19 19 19 19 19 19 19 19 19 19 19 19 20 20 20 20 20 20 19 19 20 19 19 19 18 18 18 18 18 18 18 18 17 17 17 17 17 17 17 16 16 15 11 10 12 12 10 10 9 8 7 6 6 5 5 4 4 3 3
18 18 18 18 19 19 20 20 20 20 20 20 20 20 20 20 20 20 21 21 21 21 21 21 21 21 20 19 19 20 19 19 19 19 19 19 20 19 19 19 19 20 20 21 21 20 20 20 20 19 18 18 18 17 18 18 18 17 18 17 16 16 17 16 17 16 16 16 16 16 15 11 10 11 11 10 10 8 7 7 6 5 5 4 4 4 3 3
18 18 18 18 19 19 20 20 20 20 20 20 20 20 20 20 20 20 20 21 21 21 21 21 21 21 20 19 20 20 19 19 19 19 19 19 19 19 19 19 20 20 20 20 21 20 20 20 19 18 17 17 17 18 18 18 17 16 18 17 14 15 16 16 16 16 16 16 15 16 14 10 9 11 11 10 9 8 7 6 5 5 4 4 4 4 4 3
18 18 18 18 19 19 20 20 20 20 20 20 20 20 20 20 21 21 21 21 21 21 21 21 21 21 20 19 20 20 19 19 19 19 18 19 19 19 19 20 20 20 20 20 20 20 20 19 17 17 16 16 16 17 18 18 16 15 16 16 15 15 15 15 15 15 15 16 15 15 13 10 9 10 10 10 9 8 7 6 5 5 4 4 4 4 4 4
19 19 18 18 19 19 19 20 20 19 20 20 20 20 20 20 20 21 21 21 21 21 21 21 21 21 20 19 20 19 19 19 19 19 18 19 19 19 19 20 20 20 20 20 20 20 20 19 18 16 15 14 14 16 19 19 17 15 14 15 15 15 14 14 15 15 15 15 15 14 12 10 9 10 10 10 9 8 7 6 5 5 4 4 4 4 4 4
19 19 19 19 19 19 19 20 19 19 20 20 20 20 20 20 20 20 21 21 21 21 21 21 20 21 20 19 19 18 18 19 19 18 18 19 19 19 19 19 19 20 20 20 19 19 18 18 17 15 14 14 13 15 18 17 15 15 14 14 14 14 14 14 15 15 15 15 14 13 12 9 8 9 9 9 9 8 7 6 5 5 5 4 4 4 4 4
19 19 19 20 20 20 20 20 20 20 20 21 21 20 20 20 19 20 20 20 20 20 20 19 18 20 20 19 18 18 18 19 19 18 18 19 19 20 19 19 19 19 19 19 18 18 17 16 16 15 14 14 13 14 16 15 14 14 13 13 13 13 13 14 14 15 14 14 14 14 12 9 8 9 9 9 8 8 7 6 6 5 5 4 4 4 4 4
19 19 20 20 20 20 20 21 21 21 21 21 21 20 20 20 19 20 18 17 17 17 18 17 17 18 19 18 18 18 19 19 19 17 18 18 19 20 19 19 19 19 19 18 18 17 16 15 14 14 14 14 14 14 14 14 14 14 13 13 13 13 12 13 14 14 14 14 13 14 12 9 8 8 8 8 8 7 7 6 5 5 5 4 4 4 4 4
19 20 20 20 20 21 21 21 21 21 21 21 20 20 19 19 20 19 17 17 17 17 17 17 18 18 18 18 18 17 18 19 19 17 17 18 18 20 19 18 19 19 18 18 17 16 15 15 14 14 14 14 14 14 13 13 13 14 13 13 13 13 13 13 13 13 14 13 13 13 12 9 8 7 8 8 8 7 6 6 5 5 5 5 4 4 4 4
20 20 20 20 20 21 21 21 21 21 20 20 20 18 17 17 18 18 18 18 18 17 17 17 18 18 18 18 18 17 16 18 19 17 17 18 18 19 18 17 18 18 17 17 17 16 15 15 15 14 14 14 14 14 13 12 13 14 13 13 13 13 12 13 13 13 13 12 12 13 12 10 7 7 7 7 7 7 6 6 5 5 5 5 4 4 4 3
20 20 20 20 20 21 21 21 21 20 20 20 19 17 16 17 18 18 18 19 18 17 17 17 17 17 17 18 18 18 17 16 17 17 16 17 17 17 17 17 17 16 16 17 18 17 16 15 15 14 14 14 14 13 13 13 14 14 13 14 13 12 11 12 13 13 12 12 12 12 12 10 6 6 6 6 7 6 6 6 5 5 5 5 5 4 4 3
20 20 20 21 20 21 20 20 21 20 20 20 19 17 17 18 18 18 19 19 19 18 17 17 17 17 17 17 17 17 17 16 16 16 16 16 16 16 17 17 16 16 15 15 16 16 16 15 14 14 15 14 14 13 12 13 14 13 13 14 13 12 12 11 11 11 12 11 12 12 12 10 6 6 6 5 6 6 5 6 5 5 5 5 4 4 3 3
20 21 21 21 21 21 20 20 20 20 20 19 18 17 18 18 18 19 19 19 19 18 17 17 17 17 17 17 18 17 16 16 16 16 16 15 16 16 16 16 16 16 15 15 15 15 15 15 14 15 15 14 14 13 12 13 14 13 14 14 13 12 12 11 10 11 12 12 13 12 12 12 7 6 6 5 5 5 5 5 5 5 5 5 4 3 4 4
21 21 21 21 21 21 21 20 20 20 20 19 18 18 18 18 18 19 19 19 19 19 18 18 18 17 17 18 17 16 17 17 16 17 16 15 15 15 16 16 16 16 15 15 15 15 15 14 14 14 14 14 13 13 12 12 12 14 15 14 12 12 11 11 10 11 12 12 12 12 12 11 9 8 7 4 4 5 4 5 4 4 5 4 4 3 4 3
21 21 21 21 21 21 21 21 20 20 20 19 18 18 18 18 19 19 19 20 19 19 18 19 18 18 18 18 16 16 18 17 16 17 16 16 15 15 16 16 15 15 14 14 16 15 14 14 14 14 14 14 13 13 12 12 12 14 15 13 11 11 10 10 10 10 11 11 12 12 11 11 11 10 6 4 5 4 4 4 4 4 4 4 3 3 3 3
20 21 21 21 21 21 21 20 20 19 19 19 18 18 18 19 19 19 20 20 19 18 18 18 18 18 18 17 16 16 17 16 17 17 16 16 16 15 16 16 15 15 13 15 18 15 13 14 14 14 14 14 13 13 12 12 12 14 14 12 11 11 10 10 10 10 10 11 12 12 11 11 11 9 5 4 5 5 4 4 4 4 4 4 4 3 3 2
20 20 21 20 20 21 20 20 20 19 19 19 18 19 19 19 19 19 20 20 19 18 17 17 18 18 17 17 16 16 16 16 16 17 16 16 16 16 16 15 15 15 13 14 16 14 12 13 12 13 13 13 13 13 12 12 13 13 13 12 11 10 10 10 10 11 11 11 12 12 11 11 11 10 6 5 6 6 6 5 4 4 4 4 4 3 3 2
20 20 20 20 20 20 20 20 19 19 19 18 19 18 18 19 19 20 20 19 19 18 17 17 17 17 16 17 17 16 16 16 16 16 16 15 15 15 14 13 14 15 14 13 14 13 12 11 11 12 13 13 12 12 12 12 12 13 12 11 12 11 11 11 10 11 11 12 12 12 11 10 11 11 9 7 8 8 7 6 5 4 4 4 4 3 2 2
19 20 20 20 20 19 19 19 19 19 18 18 18 18 18 19 19 20 19 18 18 18 17 17 16 16 16 16 17 15 15 16 15 16 16 15 14 14 14 14 14 15 16 14 13 12 12 12 12 12 12 12 12 12 12 12 11 12 11 11 12 13 12 12 11 11 13 14 13 11 10 11 11 12 11 9 7 7 7 7 6 6 5 4 4 3 3 2
19 19 19 19 19 19 19 19 18 18 18 18 18 18 19 19 19 20 19 18 18 18 17 16 15 15 15 15 15 14 15 16 15 15 15 14 13 11 12 13 12 16 18 15 14 13 12 12 12 12 12 11 12 13 13 12 12 12 12 11 12 13 12 13 12 11 13 14 13 11 10 10 11 12 12 10 8 6 7 7 7 6 6 4 3 3 3 2
18 18 19 19 19 19 18 18 18 18 18 18 18 19 20 20 19 19 18 18 18 16 15 15 15 15 15 16 15 13 14 15 15 15 14 14 13 11 11 10 9 14 17 15 15 15 14 12 11 12 12 11 12 13 13 13 12 12 11 11 12 12 12 12 11 10 11 12 12 11 10 10 11 12 11 10 9 7 7 7 7 6 5 4 3 3 3 2
18 18 18 18 18 18 18 17 17 17 18 18 19 20 19 20 19 17 17 17 16 14 14 14 15 15 15 15 14 13 15 15 14 15 15 14 14 13 13 11 10 11 13 14 14 14 16 16 13 12 12 12 12 12 12 11 11 11 11 11 12 11 11 12 11 11 11 10 10 10 10 11 12 12 10 10 9 7 6 6 5 4 4 3 3 2 2 2
18 18 18 18 18 17 17 17 17 18 18 19 19 19 19 20 19 18 17 16 14 15 14 13 14 16 15 14 13 12 14 15 14 14 15 14 14 13 12 12 10 10 12 15 14 12 15 16 13 11 11 12 12 11 10 10 11 11 11 11 11 10 10 11 11 10 9 8 8 9 11 12 12 10 7 7 7 6 5 4 3 3 3 2 2 2 2 2
17 17 17 18 17 17 17 17 17 18 18 19 19 19 19 18 17 17 16 14 14 15 15 15 15 17 16 15 14 13 13 14 14 14 14 13 12 12 11 10 9 9 11 13 13 12 15 16 12 10 11 10 10 10 10 11 12 12 11 11 10 9 9 9 9 9 8 8 9 10 11 11 11 10 7 5 6 6 5 4 3 4 3 2 2 3 2 2
17 17 17 17 17 17 17 17 18 18 18 19 20 19 17 15 13 13 12 12 13 13 15 18 17 16 17 17 15 14 13 13 14 15 14 13 12 12 11 10 9 9 9 10 12 12 14 15 12 11 12 10 9 10 10 10 10 11 11 10 9 9 9 8 9 8 8 8 9 10 10 9 9 10 8 6 6 6 6 5 4 3 2 2 3 3 2 1
17 16 17 17 17 17 17 17 18 18 18 19 19 17 15 13 11 10 10 11 12 13 16 18 16 15 17 17 16 14 14 15 15 15 15 14 13 12 11 11 10 9 9 9 11 11 12 14 13 10 11 11 9 11 11 10 9 10 11 10 9 10 10 9 9 9 8 8 8 8 9 9 9 10 10 9 8 8 8 6 5 4 4 3 3 3 1 0
16 17 17 17 17 17 17 18 17 17 18 19 19 17 14 12 10 9 9 9 11 14 16 17 15 15 15 16 16 14 13 15 15 15 15 15 14 11 10 11 10 9 9 9 11 11 10 13 14 11 10 10 10 11 11 11 10 10 10 9 10 10 10 9 9 8 8 8 8 8 9 9 10 10 11 11 10 9 8 7 6 5 4 3 3 2 1 -0
16 17 18 17 18 18 17 18 18 18 18 17 17 15 13 11 10 8 8 9 11 13 15 15 15 15 15 14 14 14 13 14 14 15 15 14 13 12 9 9 10 9 9 9 10 10 10 12 14 12 10 10 11 11 11 11 10 10 10 9 9 9 9 9 8 7 8 8 7 7 8 10 11 11 11 11 11 10 8 7 6 4 3 3 2 1 1 -0
16 18 18 17 18 18 17 18 17 17 17 15 14 13 12 11 10 9 8 8 10 11 12 13 14 15 15 14 14 14 13 14 14 14 15 13 13 13 9 6 8 8 9 10 10 10 11 11 11 11 12 13 12 9 8 10 10 10 10 10 10 10 9 9 8 7 7 7 7 7 7 9 10 11 11 11 11 9 8 7 5 4 3 3 2 1 1 -0
17 18 18 17 18 18 17 17 15 14 15 14 12 11 11 11 10 10 9 9 10 11 11 12 13 14 14 14 14 13 13 14 14 14 14 13 12 11 7 4 5 7 8 10 9 8 9 9 10 11 12 12 10 8 7 8 9 10 10 9 9 9 9 9 9 8 6 6 7 6 6 8 10 11 11 11 11 9 7 6 5 4 3 3 2 1 0 -1
18 18 18 17 17 17 18 17 14 13 13 11 10 10 10 11 11 10 10 10 11 11 12 12 13 13 13 13 13 14 13 14 14 14 13 13 10 7 5 4 5 6 8 9 9 8 8 9 10 11 11 10 8 8 8 8 8 10 10 9 9 8 9 9 8 7 6 6 6 6 6 8 11 11 10 10 10 8 6 6 5 5 4 3 2 1 -0 -1
17 17 17 17 17 17 18 18 17 15 11 10 10 11 10 10 10 11 11 11 11 12 13 13 12 12 12 12 12 13 13 14 15 13 12 13 10 5 3 4 4 6 7 8 8 8 9 11 11 11 13 12 11 10 10 9 9 10 9 9 8 7 7 6 5 5 6 6 6 6 7 9 11 11 10 9 9 9 8 6 5 5 4 3 2 1 -1 -2
17 17 17 17 17 17 17 16 17 16 12 11 12 12 11 11 10 10 11 11 10 11 12 12 11 11 12 11 12 12 12 13 14 12 11 11 8 4 3 3 4 5 5 5 5 7 9 11 10 11 13 14 14 14 13 11 10 10 9 8 8 7 7 7 6 5 6 6 5 6 8 11 12 11 10 10 10 9 8 7 5 4 4 3 1 0 -1 -2
18 18 18 17 16 16 15 13 14 15 13 13 14 13 12 13 11 9 10 11 10 10 11 12 11 11 12 12 13 13 12 11 12 11 11 11 9 5 3 3 3 4 4 3 4 6 8 9 9 11 12 13 14 14 12 11 10 10 9 8 7 6 6 7 7 6 6 6 5 7 9 10 10 11 10 10 10 9 8 7 6 4 3 2 1 0 -1 -2
17 18 17 17 17 16 15 13 13 15 14 15 16 14 13 13 12 10 10 10 10 10 11 11 11 12 13 13 13 13 12 11 11 11 11 10 8 5 3 3 3 3 3 4 4 6 8 9 9 9 10 10 11 11 10 9 9 9 9 9 8 6 5 6 7 7 7 6 7 9 9 8 10 11 10 10 10 8 8 7 6 5 4 2 1 0 -1 -2
16 16 14 14 16 17 16 15 13 14 14 14 14 14 13 13 13 13 12 10 9 10 11 12 12 12 13 13 14 14 12 12 12 11 10 9 8 6 5 4 4 3 4 4 5 6 8 9 8 8 8 9 9 9 9 8 8 8 8 8 7 6 5 6 6 7 7 7 9 10 9 8 9 10 10 9 9 8 7 7 6 4 3 2 1 0 -1 -2
14 15 12 11 14 15 13 13 13 14 15 14 14 14 14 14 14 14 12 11 11 10 11 14 14 13 12 12 13 14 13 14 14 12 11 10 9 8 8 7 5 2 4 6 5 5 7 9 8 8 8 9 9 9 9 8 8 8 8 8 8 6 5 5 6 6 6 7 8 8 8 7 8 8 8 8 8 7 6 6 5 4 3 2 1 1 -0 -2
15 16 14 12 13 13 12 12 13 15 15 14 15 15 13 14 15 13 12 13 14 12 11 13 14 13 13 12 13 14 13 13 14 13 11 11 10 9 10 10 8 3 3 6 6 5 7 9 8 8 9 10 10 10 10 9 8 9 9 9 8 7 6 5 5 5 5 5 6 6 5 5 7 8 8 7 7 7 6 6 5 5 4 2 2 1 -0 -2
15 14 14 16 16 13 13 14 13 15 16 15 16 15 14 14 14 13 13 12 13 13 12 13 14 12 12 12 12 13 11 11 12 12 11 12 11 10 10 10 8 6 4 5 5 5 6 8 8 8 9 11 10 10 10 9 8 8 9 9 9 8 7 7 5 5 5 6 6 5 5 6 8 9 8 8 7 7 7 6 6 4 3 2 2 1 -0 -2
14 13 13 16 16 13 13 14 14 15 17 15 15 14 14 14 14 14 15 12 10 11 11 11 13 12 12 13 12 11 9 9 10 9 9 10 10 9 9 9 8 8 6 4 5 5 5 7 8 8 9 11 10 9 8 8 10 12 13 13 12 10 8 9 8 6 6 7 8 7 8 10 10 9 8 8 8 7 7 6 5 4 3 2 1 0 -1 -2
Height
832 832 831 831 831 830 830 830 829 829 829 829 828 827 827 827 827 827 827 827 827 827 827 827 826 827 827 827 827 827 827 827 826 824 825 829 829 828 827 825 824 823 822 821 819 819 817 816 815 813 814 814 815 815 815 815 816 819 828 840 847 849 851 850 850 849 847 848 846 843 842 844 846 844 841 846 853 855 856 857 860 861 861 864 868 871 872 874
833 832 832 832 831 831 831 830 830 829 829 829 828 828 828 828 827 827 828 828 828 828 828 827 826 827 827 827 827 827 827 827 826 826 827 829 829 828 827 825 824 823 821 820 819 818 817 816 814 814 815 816 816 816 817 817 818 824 833 842 847 848 850 847 846 847 845 847 846 843 842 843 847 844 840 852 861 857 857 861 862 866 869 870 871 873 874 875
833 833 832 832 832 831 831 831 830 830 830 829 828 829 828 828 828 828 828 828 828 828 827 827 827 826 827 827 827 827 827 827 827 828 828 829 828 828 827 825 824 822 821 820 818 817 817 815 814 815 816 818 818 817 820 821 822 827 833 844 848 846 848 847 845 845 845 846 845 845 843 843 847 843 843 855 862 860 863 865 863 867 872 873 873 874 875 876
833 833 833 832 832 831 831 831 830 830 830 829 829 829 829 829 829 829 828 828 828 828 827 827 827 827 827 827 827 827 826 828 831 830 830 829 828 827 826 825 823 822 821 819 818 817 816 814 814 815 817 820 820 820 824 825 825 829 834 843 844 842 847 847 845 845 844 844 845 845 843 845 850 848 849 854 859 865 868 866 865 867 871 872 873 875 876 877
834 834 833 833 832 832 831 831 831 830 830 830 830 830 829 829 829 829 828 828 828 828 827 828 828 828 827 827 827 826 827 833 835 831 830 829 828 827 825 824 823 822 820 819 818 816 816 815 814 816 818 823 824 824 828 827 826 832 838 839 838 839 845 846 844 844 844 844 846 846 844 847 851 853 855 855 861 869 867 866 866 866 869 871 873 875 876 877
834 834 834 833 832 832 831 831 831 830 830 830 830 830 830 830 829 828 828 828 828 828 828 828 828 828 828 827 827 825 828 836 835 831 831 829 827 826 825 824 822 821 820 819 817 815 816 815 817 819 821 825 828 829 830 828 827 835 841 837 836 838 843 844 842 842 843 844 847 846 845 848 852 857 859 858 864 868 867 867 867 868 870 871 873 875 877 878
834 834 834 833 832 832 831 831 831 830 830 830 830 830 830 830 829 828 827 827 828 828 829 828 828 828 828 828 827 826 829 835 834 832 831 829 828 826 825 824 822 821 819 818 816 816 817 817 819 822 824 828 830 831 831 829 828 835 841 838 837 838 840 841 840 842 843 845 848 845 846 851 854 857 860 863 867 867 867 868 868 870 871 871 874 876 877 879
834 834 833 833 832 832 832 831 830 831 831 831 831 831 831 830 829 828 827 828 828 829 829 829 828 828 828 828 828 829 832 835 833 832 831 829 828 826 825 824 822 821 819 819 819 817 818 820 822 823 827 830 830 831 831 832 834 836 840 839 838 839 840 840 840 842 844 845 847 847 850 854 854 855 861 867 869 868 867 869 870 871 872 873 875 877 878 879
835 834 834 834 833 832 832 831 831 831 831 831 831 831 831 830 829 829 828 829 829 829 829 829 829 827 827 827 827 831 836 835 834 832 831 829 828 826 825 824 823 822 820 821 820 818 819 823 825 823 827 830 829 831 831 835 839 839 839 839 839 840 840 840 841 842 843 845 847 850 855 857 853 853 864 870 869 868 868 870 872 872 874 876 877 878 878 879
835 835 834 834 833 833 832 832 832 832 832 832 831 831 831 831 830 830 829 830 829 829 829 829 829 827 826 826 828 835 837 835 834 832 831 829 828 827 826 825 824 823 822 823 821 821 822 825 825 823 825 828 829 832 833 835 838 838 838 839 840 840 840 840 842 843 843 844 846 851 858 859 854 855 868 874 869 868 869 872 873 873 876 877 878 880 879 880
836 835 835 834 833 832 832 832 832 832 832 832 832 832 832 831 831 830 830 830 829 829 829 830 829 828 826 826 831 838 837 834 834 832 831 830 828 828 827 826 826 825 824 824 823 823 824 824 824 823 827 830 831 832 833 834 835 836 838 840 841 840 841 841 843 843 843 844 846 851 858 860 857 859 869 872 870 869 870 874 875 875 877 878 880 881 881 881
836 835 834 834 832 832 833 833 833 832 832 832 832 832 832 832 831 831 831 830 830 830 830 830 829 829 827 828 834 838 836 834 834 833 832 831 829 829 828 828 827 827 826 825 825 825 825 825 824 825 829 831 833 835 834 834 835 836 838 842 845 844 845 844 844 844 843 845 847 848 855 864 866 865 869 870 870 870 871 875 876 876 878 879 881 881 882 882
836 835 834 834 833 833 833 833 833 833 833 832 832 832 832 832 831 831 831 830 830 830 830 830 829 829 828 833 837 837 835 835 834 833 832 831 830 830 829 829 829 828 827 826 826 826 826 826 825 827 828 830 835 836 834 834 835 838 840 842 847 850 850 846 845 845 844 845 846 846 854 870 873 867 867 870 869 870 873 875 876 878 879 880 881 881 882 882
836 835 834 834 833 833 833 833 834 834 833 833 833 832 832 832 832 831 831 831 830 830 830 830 830 829 831 836 837 835 836 835 834 833 832 831 830 830 830 830 829 828 828 827 827 827 827 827 825 826 828 831 834 834 836 837 837 841 842 845 855 857 853 849 846 846 846 846 845 845 853 869 874 868 868 869 868 870 873 876 877 878 879 880 881 881 882 881
836 835 834 834 833 833 834 834 834 834 834 834 833 833 832 832 832 831 831 831 830 831 830 830 830 830 833 837 836 836 836 834 834 833 832 832 831 831 831 830 830 829 829 829 828 828 828 827 828 831 834 834 834 836 839 841 844 847 846 851 861 859 854 851 848 848 849 847 845 846 855 870 874 869 868 868 868 869 872 876 878 878 879 880 881 881 881 881
836 836 834 834 834 834 835 835 834 834 834 834 833 833 833 832 832 831 831 831 831 831 830 830 830 830 836 839 835 835 836 835 835 834 833 833 832 832 831 830 830 830 830 830 829 829 828 829 832 837 840 840 842 843 842 845 852 856 856 858 859 858 859 856 850 850 850 846 846 848 858 872 874 869 868 868 869 870 872 876 877 878 879 880 881 881 882 881
837 836 836 835 835 835 835 835 835 834 834 834 834 834 833 832 832 831 832 831 831 831 830 831 830 830 836 837 836 837 837 837 836 835 834 832 833 832 831 831 830 830 830 830 830 830 829 831 836 842 845 849 852 845 841 848 855 859 864 864 862 861 863 859 852 850 849 847 849 851 859 870 872 869 868 868 869 870 872 875 877 878 879 880 881 881 881 881
837 837 837 836 836 836 836 836 836 835 835 835 835 835 834 834 833 832 832 831 831 831 831 832 830 834 840 839 840 840 838 837 837 836 834 832 832 832 832 832 831 831 831 832 833 832 833 836 841 848 852 854 857 850 847 856 862 863 867 867 866 865 864 861 855 850 849 849 851 854 861 871 874 870 869 869 869 870 872 874 876 877 878 879 881 881 881 880
837 837 837 837 837 837 837 837 836 836 836 836 835 835 834 834 834 833 832 831 834 836 839 840 838 842 845 842 841 840 837 837 837 836 834 833 832 832 832 831 832 833 834 838 839 838 840 844 848 853 859 861 862 861 859 863 866 865 868 869 868 868 865 861 855 851 851 851 851 852 858 869 874 871 870 869 869 870 872 874 875 877 878 879 879 879 879 879
838 838 838 838 837 838 838 837 836 836 836 836 835 835 835 836 837 839 838 836 840 843 845 845 843 844 844 842 841 839 837 837 837 837 834 833 832 832 832 832 833 835 838 842 844 844 845 852 860 862 866 866 863 864 864 864 865 864 866 867 867 868 866 860 856 852 851 854 853 851 855 866 873 872 870 870 870 871 872 874 876 877 877 878 878 878 878 878
838 838 838 838 838 838 837 837 836 836 835 835 835 835 837 838 840 843 843 843 845 845 844 844 844 844 843 843 842 840 839 838 837 836 835 834 832 833 834 835 836 839 843 844 845 848 848 856 866 866 865 865 863 865 867 866 864 864 866 867 866 866 863 858 856 854 853 857 855 851 856 865 872 872 870 870 869 870 872 873 875 876 876 876 876 876 876 877
839 838 838 838 837 837 837 837 836 835 835 835 835 836 837 837 838 839 841 845 847 844 845 844 844 845 844 843 843 842 842 841 838 836 836 834 833 836 839 840 842 846 848 845 847 854 857 862 865 864 864 864 864 865 867 866 863 862 865 867 866 866 864 857 853 854 855 857 855 850 852 860 871 873 871 871 870 871 871 871 873 873 875 875 874 875 875 877
839 838 838 838 838 837 837 837 836 836 835 835 835 836 837 837 838 838 838 844 848 846 846 845 845 846 845 844 844 842 843 846 845 842 839 837 837 841 843 845 848 850 851 849 850 853 859 864 863 862 863 863 865 866 866 864 861 863 864 863 864 867 870 863 856 855 856 857 855 851 850 859 873 875 872 873 870 871 871 871 872 872 872 873 873 874 875 875
839 839 838 838 838 837 837 837 836 836 836 836 836 837 838 838 838 838 839 843 848 847 847 847 847 847 846 845 845 844 846 849 849 847 843 842 843 845 845 849 851 854 858 857 855 856 859 863 862 862 863 863 865 867 869 865 861 864 863 861 863 865 868 868 864 860 856 855 853 853 850 854 871 875 871 874 873 872 872 871 872 871 871 872 872 874 873 872
839 839 838 838 838 838 838 837 837 837 836 837 837 837 838 838 838 838 839 846 850 848 848 847 847 847 846 846 845 846 847 849 850 849 846 846 846 846 848 850 851 857 862 860 859 861 862 862 861 862 863 864 865 866 870 867 863 863 860 859 862 863 864 866 869 866 858 853 850 854 852 847 864 874 870 874 874 872 873 871 872 871 871 871 872 872 871 870
839 839 839 838 838 838 838 837 837 837 837 838 838 838 838 838 839 837 840 851 855 850 849 848 848 848 846 846 845 845 848 851 850 849 847 847 847 847 849 851 852 857 860 860 860 861 862 862 862 863 864 865 865 867 869 869 868 863 856 858 862 864 866 865 868 866 859 854 850 854 855 850 855 861 865 874 876 873 873 872 871 871 870 870 871 870 868 868
839 839 839 838 838 838 837 837 837 837 837 838 838 838 838 838 839 837 844 859 860 851 850 848 848 849 847 846 845 846 851 852 850 849 848 848 848 848 850 853 854 856 859 860 859 861 862 862 862 864 864 865 865 865 867 869 869 859 851 857 862 864 866 865 866 866 862 859 853 851 855 855 848 850 865 875 873 874 873 871 871 869 869 869 868 867 866 867
840 839 839 838 838 837 837 837 837 837 837 838 838 839 839 839 839 838 849 864 860 851 851 849 847 848 847 847 846 849 853 853 852 851 848 848 849 848 850 855 856 857 861 859 855 862 866 863 864 865 865 865 864 864 866 868 867 858 854 859 862 862 863 864 865 865 865 861 853 849 854 856 847 849 871 878 872 872 868 867 868 865 866 866 865 865 864 864
840 839 838 838 837 837 837 837 837 837 837 837 838 839 839 839 838 842 854 863 857 851 852 850 848 849 850 850 850 852 853 853 856 853 849 850 850 849 852 856 856 857 862 859 856 863 868 866 868 868 867 866 864 864 866 866 864 860 858 858 858 861 862 864 864 861 864 861 852 850 855 858 848 845 865 874 867 863 859 861 864 862 863 862 861 862 862 862
840 839 838 838 837 837 837 837 837 837 837 838 838 839 839 839 842 853 863 861 854 854 853 850 852 854 854 853 854 856 856 856 857 854 852 854 852 853 856 857 857 858 861 862 862 867 870 869 871 869 866 866 865 865 865 865 864 861 862 860 855 856 857 861 863 860 860 855 848 851 856 860 853 840 847 858 852 849 851 855 859 859 860 859 858 860 860 859
840 839 839 837 837 837 837 837 837 837 838 838 839 839 839 842 849 861 865 857 854 856 854 855 859 858 858 858 858 860 860 858 859 857 857 858 859 860 859 858 859 858 858 862 866 871 871 867 869 869 867 868 867 866 864 866 867 864 865 864 854 852 855 856 859 859 854 842 842 855 858 858 854 837 833 844 849 849 848 849 852 854 854 856 856 857 857 857
840 840 839 838 838 837 837 837 837 838 838 838 840 839 842 852 857 858 859 855 856 858 857 860 862 861 862 863 863 866 864 861 861 861 863 865 870 874 871 870 871 860 854 861 866 868 869 868 870 869 868 870 867 864 863 864 866 864 865 865 857 856 858 855 858 862 854 841 842 855 857 855 850 833 829 838 844 849 848 845 847 848 849 852 854 854 854 854
841 840 840 839 838 838 838 838 838 838 838 839 840 839 847 858 859 859 859 856 858 861 862 864 862 862 864 862 865 870 867 864 864 863 866 868 871 877 877 880 881 868 858 862 864 861 862 867 872 869 867 869 866 863 863 864 865 865 867 867 863 865 864 859 864 868 862 849 844 853 860 857 845 830 829 833 836 843 846 845 845 845 847 849 850 852 852 853
841 841 840 840 839 839 838 838 838 839 839 839 840 844 854 858 858 863 862 858 862 864 864 865 862 862 865 863 868 871 866 865 867 864 865 866 868 872 873 876 880 876 869 867 867 866 859 857 865 868 866 867 867 868 869 870 871 869 870 870 869 873 870 864 866 868 868 864 856 855 855 847 835 828 830 833 836 843 845 845 847 847 848 849 849 851 851 851
842 841 841 840 839 839 839 839 839 839 839 839 843 852 857 855 854 858 859 860 864 863 864 868 864 862 865 868 871 872 868 866 867 867 866 868 872 874 876 878 880 882 875 865 869 875 863 855 865 871 868 867 868 871 874 874 871 870 872 871 872 878 878 875 873 871 878 882 871 857 845 835 831 832 838 841 840 844 845 846 849 847 847 849 849 850 849 848
842 841 840 840 840 839 839 838 839 839 839 841 848 855 856 855 856 858 861 864 864 862 863 865 863 861 863 867 869 871 871 869 867 867 869 873 877 878 879 882 884 884 878 869 871 874 861 856 867 871 869 871 872 872 874 872 868 869 872 873 878 883 883 882 881 881 889 888 870 853 841 837 834 830 839 848 844 842 845 846 847 845 846 849 847 845 846 847
841 841 841 841 840 839 839 839 839 839 839 843 850 855 858 861 866 867 868 868 866 866 862 858 860 861 860 862 865 868 869 869 868 867 869 873 875 877 880 882 884 884 883 879 875 875 869 860 866 871 867 872 876 872 873 875 872 870 870 875 882 883 884 887 886 885 890 885 868 856 849 847 843 833 835 846 844 838 839 841 844 845 845 846 843 842 843 845
841 841 841 841 840 839 839 839 840 839 841 846 852 857 863 866 870 873 873 871 868 866 861 856 860 864 862 860 863 868 869 865 866 867 868 870 872 877 880 880 883 884 885 884 877 878 877 863 862 872 869 871 877 872 869 874 876 873 871 875 878 875 878 885 884 881 886 886 874 863 858 852 844 834 827 829 831 829 830 835 838 839 841 841 840 840 842 843
841 842 842 841 840 839 839 839 840 840 843 849 852 857 864 869 873 876 875 874 870 864 860 860 862 865 865 863 863 869 870 865 864 866 866 867 871 877 882 880 882 884 885 884 878 878 881 868 861 869 874 873 874 871 868 871 876 875 875 878 877 876 880 884 887 887 886 886 879 868 858 843 832 827 821 818 821 822 825 831 833 834 837 838 838 838 840 840
842 843 842 841 839 840 840 839 841 843 847 854 856 859 865 869 874 877 876 875 872 866 862 863 863 862 864 868 868 868 870 868 867 866 865 869 871 875 883 884 883 885 885 884 882 880 881 875 865 868 875 873 868 869 869 869 873 875 875 879 879 880 884 885 890 893 887 885 888 884 867 837 818 819 817 813 815 818 823 827 829 833 835 834 835 835 835 836
842 843 843 840 840 840 840 840 846 851 854 859 862 864 867 869 872 876 877 876 873 870 869 867 864 863 863 866 868 869 870 868 868 866 865 870 870 871 884 891 888 887 885 881 882 882 879 878 875 872 868 862 863 873 877 873 873 871 870 875 874 876 883 884 886 891 892 889 886 890 880 841 814 814 813 810 813 817 822 826 827 831 832 830 831 832 832 833
843 845 843 840 840 840 840 846 856 860 858 861 866 868 869 869 871 874 875 875 873 871 872 869 866 866 866 866 867 869 870 867 867 867 866 869 873 876 887 895 894 891 886 882 884 887 885 885 884 873 864 863 869 877 880 877 874 871 870 874 875 877 880 880 879 884 893 893 887 895 890 844 810 811 811 808 813 817 822 826 826 827 827 827 828 828 830 831
843 844 842 840 841 840 842 850 858 862 864 869 871 871 871 870 871 873 873 872 871 870 870 869 868 868 867 868 868 868 869 867 866 868 869 870 878 887 894 896 894 892 888 884 885 888 887 884 880 871 864 869 876 878 879 878 875 871 870 873 876 877 876 878 883 887 892 890 885 897 890 839 805 810 812 809 814 818 821 823 822 822 823 824 825 826 828 829
843 843 842 841 841 840 843 848 852 859 869 872 870 870 871 871 871 871 871 870 870 869 868 868 870 869 869 871 870 868 870 867 864 870 872 870 879 894 898 896 894 892 888 885 885 887 881 876 876 871 860 859 863 866 869 872 873 870 869 873 875 878 884 887 893 898 894 883 881 888 873 829 804 809 812 812 814 813 815 818 817 818 820 821 822 823 826 827
843 843 843 842 841 841 845 849 848 855 867 869 866 867 868 870 872 873 871 871 872 871 868 868 871 870 871 872 870 871 873 868 865 872 875 874 883 895 898 896 895 893 892 893 893 889 881 876 877 871 862 856 852 851 855 860 865 866 868 873 874 878 882 880 889 899 890 881 884 878 848 812 798 804 808 809 810 809 811 814 815 816 817 817 820 821 823 824
844 845 845 844 843 844 848 853 852 853 860 862 861 864 866 865 871 874 872 871 872 873 870 869 871 870 870 871 869 869 872 873 872 873 872 873 882 894 897 896 896 895 895 896 895 891 887 884 881 873 865 859 851 848 855 861 864 862 864 869 873 879 880 876 884 889 879 879 878 858 837 819 805 802 803 801 803 806 808 810 811 813 814 815 817 818 819 821
845 847 848 846 846 847 849 854 855 853 855 855 854 859 864 864 868 872 871 871 872 873 870 870 870 868 866 868 867 867 871 874 875 873 873 876 884 893 898 896 896 896 896 896 894 891 887 881 879 879 872 864 861 859 862 867 866 861 861 864 868 878 882 879 876 868 865 871 856 829 830 833 812 799 800 799 800 803 804 805 807 809 811 813 815 816 817 818
846 848 853 851 848 849 850 852 855 855 854 855 857 860 862 863 864 864 866 872 874 872 868 867 868 867 865 865 863 865 869 870 870 872 874 878 884 889 892 894 896 896 895 895 893 891 887 879 878 881 874 868 871 867 863 868 867 862 862 863 865 875 880 874 865 860 862 861 838 816 824 830 813 802 801 799 801 803 801 801 804 806 809 811 812 812 812 814
848 849 854 854 851 853 856 856 857 855 853 855 858 860 860 859 859 859 864 868 869 870 868 862 861 864 865 865 864 863 865 863 862 867 872 876 880 881 881 883 891 898 896 892 893 894 887 878 879 882 873 865 866 863 862 867 866 859 857 857 858 866 871 867 860 859 861 856 840 829 832 828 815 807 803 799 801 803 801 801 803 804 806 807 807 807 808 810
846 846 850 853 853 856 859 858 855 853 854 856 854 856 859 858 856 860 863 861 858 864 868 861 858 861 863 864 864 862 862 861 859 863 869 870 873 876 873 870 880 896 898 891 893 895 887 876 877 882 873 859 855 854 856 860 860 854 849 848 852 856 862 867 865 862 864 858 845 842 845 833 812 804 804 802 800 801 800 799 800 800 802 803 803 803 805 807
844 844 846 847 850 856 856 855 856 853 852 853 851 852 856 855 855 857 859 860 858 859 862 860 858 862 865 865 863 861 865 866 862 863 867 866 866 869 869 868 874 886 893 893 892 892 890 881 877 881 872 855 851 854 853 856 859 853 843 838 842 849 850 851 854 856 854 846 840 845 844 823 800 796 801 799 797 799 797 795 796 797 799 800 799 800 802 804
844 844 845 844 848 855 856 853 855 853 849 850 851 852 854 852 854 855 853 859 863 862 862 861 860 862 863 862 862 863 868 870 868 868 870 869 869 869 869 872 873 876 885 893 891 890 892 884 877 881 871 853 853 860 860 858 846 829 820 817 820 832 837 834 836 839 837 832 831 829 816 797 789 794 796 794 794 794 793 793 794 794 795 796 796 797 798 800
Wind_Speed
4 4 3 3 3 4 4 3 4 5 4 5 7 9 8 5 5 6 5 4 3 1 0 2 2 2 3 3 4 6 6 9 18 25 19 15 19 16 14 13 12 11 9 7 8 8 7 7 10 8 4 3 1 1 3 3 3 5 4 4 4 3 3 1 2 2 2 2 5 6 4 6 3 3 2 5 10 8 9 9 9 12 13 17 21 23 22 19
4 3 2 2 3 4 3 3 4 4 4 5 7 9 9 7 5 4 4 2 1 1 2 4 3 3 4 4 5 7 6 6 14 18 16 18 19 14 12 12 10 10 10 8 9 10 7 4 6 4 4 1 1 3 2 3 4 4 3 5 3 3 2 2 4 1 1 1 5 6 4 5 1 3 3 6 7 10 11 8 7 11 12 16 19 21 19 17
4 3 2 2 3 4 3 3 4 3 4 5 7 8 9 8 6 4 3 3 3 4 7 8 5 1 4 5 6 7 7 5 9 11 16 19 14 12 12 10 9 11 12 11 11 11 7 8 10 5 3 1 2 4 4 4 3 3 4 5 1 4 3 2 4 2 2 2 3 6 5 5 5 5 3 7 8 11 10 5 6 8 9 9 12 17 17 16
4 4 2 2 3 3 2 3 3 3 4 5 5 6 8 8 6 4 3 4 5 6 9 11 10 5 1 4 5 5 4 5 4 10 17 18 13 13 12 9 9 11 14 12 11 10 9 12 11 3 4 3 4 4 4 3 2 3 3 5 2 5 5 2 4 2 2 2 4 5 5 6 7 7 4 7 9 8 5 3 5 8 11 9 9 14 20 23
5 4 3 2 3 2 2 2 2 3 5 5 4 5 6 7 5 2 1 3 4 4 5 7 9 9 5 3 3 4 2 4 4 12 18 17 14 13 11 8 8 11 14 12 11 10 10 12 7 3 4 3 4 4 3 3 3 3 2 6 4 6 5 2 3 2 1 4 6 5 5 3 5 7 6 9 9 3 3 4 5 10 11 11 12 18 23 24
4 4 3 3 3 2 1 2 2 3 5 5 5 5 6 6 5 3 0 3 4 2 3 6 7 8 7 6 5 2 3 2 6 14 18 17 13 13 10 7 8 11 12 11 13 9 3 5 2 2 3 3 4 3 2 5 5 4 1 2 4 7 6 4 3 1 2 6 6 5 4 3 8 6 5 10 10 4 4 7 10 13 16 19 20 20 20 19
4 4 4 3 3 2 2 3 3 4 5 5 5 5 5 6 6 5 4 2 4 2 2 5 6 5 4 6 9 8 6 2 9 14 18 16 12 13 9 6 10 11 10 14 17 9 4 7 4 2 4 3 3 3 2 5 6 6 1 2 5 8 6 5 4 3 4 7 6 5 4 6 10 6 5 10 9 5 8 14 19 20 23 25 21 18 18 19
4 5 4 3 4 3 3 5 5 4 4 4 4 4 5 7 8 9 10 9 6 4 3 4 6 6 3 0 3 7 4 3 12 15 17 14 11 13 9 6 11 13 12 14 14 7 4 7 6 3 4 2 3 2 2 5 5 4 2 2 4 5 5 6 4 3 5 6 6 8 9 6 9 8 7 9 8 7 12 18 20 20 21 19 15 15 18 18
4 4 4 5 5 4 4 6 5 4 3 3 3 4 5 7 11 14 14 12 9 7 6 7 9 7 4 1 3 4 3 8 12 14 16 13 11 12 8 8 13 14 12 12 14 11 6 4 4 2 4 2 4 3 2 4 1 1 2 1 3 3 4 4 3 5 6 4 5 9 8 4 5 7 9 8 7 8 13 15 14 16 14 11 11 12 15 16
4 4 4 4 4 5 5 5 4 3 2 2 3 4 5 7 9 10 10 10 9 8 8 10 12 10 6 3 6 5 5 10 10 13 15 11 11 11 8 11 14 13 11 10 15 13 6 4 4 0 4 2 2 1 2 4 2 2 3 3 4 4 4 5 5 5 5 4 6 8 7 4 4 5 7 5 6 9 13 13 11 12 11 9 9 10 15 16
4 3 3 4 5 6 5 3 3 3 3 3 4 4 4 5 4 4 6 6 6 7 8 9 11 14 17 12 7 4 6 9 11 13 14 9 10 11 10 12 13 13 10 8 13 12 9 9 7 2 3 2 1 1 2 3 3 3 4 4 1 2 3 5 5 3 2 5 6 8 7 6 7 5 5 4 5 10 13 12 10 10 9 9 9 9 13 14
4 3 5 6 6 6 3 2 3 4 4 5 4 4 3 3 3 3 5 6 7 8 6 8 7 6 14 15 5 2 6 10 12 13 12 9 7 8 10 10 11 10 8 7 9 10 10 11 10 5 2 2 2 1 1 1 3 3 5 5 1 4 4 2 4 1 2 4 3 8 6 7 6 4 3 6 6 10 13 11 9 9 8 7 7 7 9 12
4 5 6 7 6 5 3 3 5 6 6 6 5 4 3 3 4 5 5 6 6 7 5 8 9 4 6 7 2 4 7 10 14 12 12 11 6 6 9 9 9 7 7 7 7 9 11 11 8 4 3 4 2 1 1 2 3 1 3 5 2 5 2 2 2 2 3 3 2 6 1 3 2 5 4 5 8 10 11 9 8 8 7 6 6 5 6 11
5 6 7 7 6 5 6 6 6 6 6 7 6 5 5 5 6 5 4 4 3 4 5 5 7 7 6 1 2 6 8 9 15 14 14 15 5 3 6 7 7 5 6 6 6 8 10 12 9 3 2 4 2 1 3 4 3 2 2 3 3 3 3 5 3 4 4 1 4 7 3 3 1 5 4 4 8 11 10 8 8 7 6 6 5 5 5 8
6 6 7 6 7 8 8 6 5 4 5 6 6 6 6 6 6 6 5 3 3 4 5 5 4 5 6 1 2 4 9 10 16 16 16 15 5 1 5 6 5 5 4 3 4 5 7 11 10 5 4 4 3 4 3 3 4 4 3 3 4 3 3 7 4 5 4 3 5 9 2 3 2 5 4 3 8 9 10 8 8 7 7 6 5 5 4 6
7 7 6 7 10 12 10 7 5 3 3 3 5 5 4 3 3 4 4 6 7 6 5 5 5 3 5 1 1 3 7 9 13 15 14 11 5 5 7 5 3 4 3 2 3 6 5 7 7 4 5 6 5 4 3 4 5 4 4 0 5 4 4 6 3 2 4 3 5 6 2 3 3 5 5 3 8 8 9 8 8 7 7 6 5 5 4 4
7 6 7 9 11 13 12 11 11 10 9 8 9 9 9 7 4 2 1 5 7 7 7 7 5 6 4 2 1 3 8 9 11 15 15 7 4 8 7 3 2 3 3 3 5 7 5 4 3 3 5 5 3 3 5 5 4 4 4 1 3 3 4 5 4 3 5 6 5 5 4 3 3 3 4 3 8 7 8 8 8 7 6 6 5 4 4 4
7 5 6 8 8 9 10 11 12 13 13 12 10 9 10 12 12 8 3 3 1 3 5 8 6 5 3 4 2 7 11 10 9 16 16 6 3 7 5 2 3 4 4 4 5 6 4 4 4 3 4 6 6 6 5 0 2 3 3 2 3 3 3 5 5 4 5 7 6 5 4 3 3 2 4 1 7 7 7 7 6 6 6 5 5 4 5 4
7 5 3 3 3 4 5 5 4 5 5 4 4 5 5 4 9 14 15 10 3 2 2 4 4 3 1 3 4 11 12 7 7 17 19 10 7 6 2 3 3 3 3 3 5 6 4 4 5 4 5 6 5 6 5 5 4 5 5 2 3 5 4 6 6 5 3 5 5 2 3 5 5 4 2 1 5 6 6 6 5 5 5 5 5 4 5 4
7 6 3 1 0 1 1 2 3 5 5 6 7 6 4 2 3 7 13 13 5 3 3 3 2 3 2 3 7 13 9 3 3 17 24 16 8 4 3 3 2 5 4 3 3 5 5 6 6 3 3 4 2 3 4 3 5 4 3 3 5 5 5 6 7 6 5 4 5 4 4 6 6 5 3 0 4 6 6 6 5 5 5 5 5 5 5 5
7 7 5 3 1 1 3 4 6 6 5 3 3 2 1 1 2 1 2 6 4 3 3 2 1 2 2 3 8 12 5 1 4 16 27 18 4 3 4 4 5 5 3 4 4 4 6 8 3 1 2 3 2 2 3 3 3 3 3 3 4 5 7 8 5 4 5 4 6 5 2 5 6 5 4 0 4 5 5 7 6 6 6 5 5 6 5 4
7 7 7 5 3 2 2 2 4 3 1 2 2 4 3 4 6 5 3 3 3 5 5 5 4 2 3 2 7 9 2 3 7 14 26 19 6 3 3 5 6 2 3 3 4 5 7 5 3 5 1 3 3 3 6 5 1 2 2 1 2 3 5 8 5 4 4 2 5 5 2 5 5 4 3 1 2 3 4 7 7 6 6 5 5 5 4 3
7 7 8 7 5 4 3 3 4 3 3 3 6 7 7 8 9 5 4 4 1 4 4 4 4 3 4 4 8 8 5 5 4 9 21 16 5 4 3 5 6 3 5 5 3 3 5 1 5 3 4 4 3 4 7 6 3 1 2 1 4 3 1 4 5 7 6 3 4 4 4 4 3 2 2 3 2 1 1 4 5 6 6 6 5 5 3 2
7 7 7 7 5 4 4 4 3 4 6 7 10 10 8 7 5 2 2 3 1 2 1 1 1 1 2 2 7 6 3 3 1 7 15 10 2 3 3 3 5 5 4 6 6 6 4 4 3 4 5 4 4 4 6 6 5 3 2 3 4 5 2 5 5 7 8 4 1 2 5 4 4 4 4 4 2 2 2 3 4 4 5 5 4 4 4 4
7 7 7 7 6 4 3 3 3 6 7 8 9 8 5 3 1 1 2 3 2 3 2 1 1 1 1 2 5 1 3 3 1 4 10 7 3 2 1 1 4 3 3 6 8 6 2 3 0 5 5 6 5 2 2 4 3 5 2 4 5 6 6 7 5 5 6 4 2 3 4 5 3 6 7 4 3 4 3 4 6 5 5 5 3 4 5 4
7 7 6 6 6 4 2 0 2 5 5 5 6 5 3 3 2 2 3 4 3 3 2 1 1 3 3 5 6 1 4 2 4 4 7 6 3 2 2 2 2 3 4 4 4 2 1 3 3 2 2 6 5 1 0 4 4 3 3 4 4 4 6 7 5 2 2 3 5 1 1 4 3 4 7 5 5 6 5 6 7 6 6 6 5 5 5 4
7 6 6 5 5 4 2 1 3 3 2 2 5 4 2 3 2 2 3 4 3 2 1 1 1 3 3 6 6 4 3 4 4 5 6 6 4 2 3 3 2 1 1 3 2 1 1 4 7 5 4 5 4 2 2 4 5 3 6 3 4 6 7 7 3 2 2 3 5 2 2 3 5 4 4 5 5 7 7 8 8 7 7 6 6 6 5 5
7 6 5 4 3 3 1 3 5 3 1 4 7 3 1 1 1 1 5 3 2 0 1 2 0 2 2 6 7 5 1 3 2 5 7 8 7 2 4 3 3 2 1 4 2 2 1 2 3 4 4 3 1 3 4 3 3 6 9 7 7 7 8 6 3 3 2 3 5 5 2 1 6 4 1 3 4 8 9 10 9 9 9 8 7 6 5 6
8 7 6 4 3 2 2 3 3 3 2 5 6 3 2 1 1 4 5 1 1 1 0 1 1 3 4 6 7 4 2 2 2 4 7 8 9 5 3 1 5 3 3 4 5 3 0 2 3 4 3 1 3 5 3 5 2 7 7 9 8 4 2 1 3 2 2 3 4 5 2 1 5 3 1 1 4 8 9 9 9 9 9 8 7 6 6 6
10 8 7 5 2 1 2 2 2 3 4 5 4 2 2 0 3 6 3 1 0 1 1 2 1 3 5 5 5 5 5 3 1 3 5 5 9 8 2 0 4 5 3 6 4 1 2 1 2 3 1 2 4 5 4 7 4 6 7 8 7 4 3 3 2 3 4 2 6 4 3 1 4 4 3 3 5 6 5 4 5 7 8 8 7 6 6 5
12 10 9 6 1 2 1 1 2 4 4 4 3 1 1 3 4 5 1 2 0 1 1 3 3 4 6 4 2 5 4 4 4 5 5 4 7 8 4 2 3 4 4 5 4 3 5 4 1 1 1 1 1 3 2 1 2 5 4 3 4 4 4 4 5 4 3 4 5 4 1 1 3 5 4 5 6 6 6 5 6 8 9 9 7 6 6 6
12 12 11 9 3 1 1 2 3 4 3 3 2 1 4 4 3 1 2 2 1 1 0 1 2 3 4 3 2 3 3 4 4 4 3 3 4 4 4 2 0 2 3 3 3 3 3 2 3 3 2 0 1 2 4 5 5 5 4 4 4 3 4 4 4 2 1 6 5 3 4 2 5 7 6 6 7 8 7 6 7 9 10 8 6 6 6 5
10 11 11 10 5 2 2 3 3 3 2 2 1 4 6 4 1 2 2 1 0 1 1 0 1 2 3 3 3 3 1 1 3 3 1 2 4 2 2 2 1 1 1 1 2 4 3 4 3 3 2 1 3 3 2 3 4 4 3 3 3 2 4 4 4 2 2 6 5 1 4 2 5 6 6 8 8 9 8 7 8 8 8 8 7 6 5 5
8 9 9 8 5 3 3 2 2 2 1 1 3 5 5 1 3 1 1 3 1 1 1 1 1 3 3 2 1 2 2 0 2 3 2 3 4 3 4 6 5 2 1 2 2 1 2 4 2 1 2 1 3 3 3 2 2 3 1 4 3 2 1 1 3 2 4 7 7 3 3 4 4 4 6 8 6 7 7 7 6 6 7 6 5 5 5 5
6 6 8 7 6 3 1 0 1 2 1 2 5 5 3 3 3 1 2 4 1 0 1 1 3 3 3 2 1 1 1 1 1 4 4 3 2 1 2 4 4 3 2 2 1 0 1 3 4 1 1 2 2 1 3 4 0 3 1 4 1 2 4 2 4 5 2 4 6 2 2 5 4 3 3 1 2 4 6 6 5 6 7 5 4 5 5 4
5 6 6 7 7 4 1 1 1 1 2 4 6 2 3 3 2 2 2 1 1 2 1 2 3 3 1 2 3 3 1 1 1 3 3 1 2 1 1 2 3 2 3 3 0 1 1 4 3 1 3 2 1 2 2 2 0 1 2 1 2 3 5 2 4 4 1 1 4 3 4 5 3 4 3 3 3 6 6 6 7 8 7 4 5 5 4 4
5 5 4 6 8 4 1 1 1 2 3 6 4 2 4 2 2 3 1 0 1 2 4 1 0 1 1 1 2 3 2 1 1 1 0 0 0 1 1 1 2 1 1 2 0 1 1 3 4 1 0 2 2 1 2 1 2 2 1 2 2 2 4 3 1 4 3 1 4 4 6 7 5 4 3 3 5 8 8 7 8 8 6 5 6 5 4 5
4 3 3 5 7 3 1 1 2 3 5 6 2 2 2 1 1 2 1 0 1 2 4 2 1 1 2 2 2 4 2 1 1 1 1 1 0 2 2 1 1 0 2 1 1 0 2 2 6 1 2 3 2 5 3 3 1 3 3 2 3 2 1 1 1 2 2 3 5 4 6 6 3 4 4 4 7 8 8 6 6 7 6 5 6 6 6 5
3 2 2 4 5 3 2 2 2 5 5 3 2 2 1 1 1 1 1 0 1 2 2 2 1 1 1 2 2 3 1 1 1 1 1 1 1 1 2 1 1 1 2 2 2 1 2 2 4 3 2 0 3 3 1 2 3 3 2 2 2 2 3 1 1 2 1 3 4 4 6 6 5 6 4 7 8 7 7 5 5 6 6 6 6 5 6 5
2 2 2 5 4 4 3 3 4 6 4 2 3 2 1 1 1 2 1 0 0 1 1 2 1 1 1 1 2 1 0 2 2 1 0 1 0 0 1 1 1 1 3 4 2 0 2 2 3 5 3 1 1 1 4 4 1 1 2 1 1 1 1 1 1 2 3 1 2 3 6 8 6 4 6 9 9 7 7 5 5 6 7 7 6 5 5 5
2 2 2 5 2 2 4 5 4 4 3 2 1 1 0 1 1 2 2 0 0 1 1 2 3 2 2 1 1 2 0 1 2 1 1 1 1 0 0 1 1 1 2 4 2 1 1 1 2 3 4 2 3 3 4 5 5 5 3 3 3 2 2 1 3 2 2 3 4 2 5 11 7 3 6 8 7 6 6 5 5 7 7 6 5 5 5 5
3 2 3 5 0 3 4 5 2 2 4 2 0 1 0 2 2 1 2 2 1 0 1 1 1 1 2 2 2 2 1 0 1 1 1 1 1 1 1 0 0 1 1 1 1 1 1 2 1 4 4 4 4 3 1 1 2 4 3 3 4 4 5 3 3 3 1 1 2 3 2 9 6 4 6 6 6 5 6 7 6 6 6 6 5 5 5 5
2 2 2 5 1 2 5 3 3 4 2 1 1 0 1 2 2 0 1 1 1 0 2 1 0 1 1 1 1 2 1 1 2 1 1 1 1 1 1 3 2 1 1 2 1 1 0 2 1 4 5 3 3 4 3 3 3 1 2 2 4 3 4 5 5 3 1 3 2 3 3 8 6 4 5 5 5 4 4 6 6 5 5 5 5 5 5 5
1 2 1 5 3 1 3 1 1 1 1 1 2 1 2 1 2 1 1 0 0 1 1 0 1 0 1 1 2 2 1 0 0 1 1 2 1 0 2 3 2 1 1 2 2 0 1 1 1 3 6 5 5 5 5 4 1 2 3 2 4 5 7 4 2 3 0 5 6 4 5 9 6 3 4 4 5 5 5 5 5 5 5 5 5 4 5 5
2 1 1 4 5 4 2 3 5 4 2 1 2 0 0 1 0 2 2 1 1 2 2 1 1 1 1 2 2 1 0 0 1 1 1 1 1 0 1 2 1 1 1 1 0 1 1 2 2 2 1 4 4 4 4 2 2 2 1 3 4 6 9 5 2 3 2 5 6 5 7 11 10 5 5 7 8 7 7 5 5 5 5 5 4 4 5 5
2 1 2 5 6 5 2 0 5 5 4 4 2 1 2 1 2 1 2 1 1 2 2 0 1 2 2 2 1 1 1 1 1 0 1 1 2 1 1 0 1 2 2 1 1 2 2 1 3 5 6 6 6 7 3 0 3 5 5 5 5 6 7 6 4 3 5 3 4 8 11 14 19 16 12 12 11 9 9 6 5 6 5 5 5 5 5 5
2 1 0 2 3 3 4 4 4 4 3 4 2 1 4 2 2 1 1 1 1 1 1 0 1 2 2 2 1 2 2 1 1 1 2 3 2 2 1 1 1 2 3 0 1 3 3 2 4 6 9 9 8 10 8 4 6 10 9 6 7 8 7 7 7 8 4 2 6 11 9 9 18 19 16 17 15 12 11 9 6 6 5 4 5 5 5 5
1 1 2 1 1 0 2 2 3 4 3 3 2 1 3 2 2 2 1 1 1 0 1 0 2 4 6 5 2 2 2 0 1 2 1 2 1 1 2 0 0 2 3 1 3 3 5 3 5 4 7 10 9 12 12 7 8 10 9 9 8 9 11 14 16 12 6 4 13 14 8 10 17 20 19 18 14 12 14 10 5 5 4 5 5 5 5 5
2 1 0 1 1 3 2 1 2 5 5 4 2 1 4 5 4 4 2 2 2 2 2 1 5 6 7 5 3 3 3 2 2 3 2 3 2 1 0 2 1 0 1 2 2 1 4 3 4 3 7 10 9 11 12 8 6 8 10 11 10 11 15 17 17 13 10 13 19 19 19 20 19 19 20 18 13 11 11 7 4 4 5 5 5 5 5 5
1 2 1 3 3 1 1 1 3 5 2 2 1 2 4 6 6 4 2 4 1 2 2 3 6 6 5 5 5 4 6 5 4 4 4 4 2 3 3 3 2 1 0 1 1 1 1 3 2 2 4 9 7 6 6 5 6 10 13 12 10 10 12 13 13 10 8 13 19 17 17 19 18 15 14 14 11 7 7 7 6 6 5 5 6 6 6 6
1 3 3 4 2 1 1 1 3 4 0 1 2 3 3 6 8 5 1 3 4 4 5 7 6 2 2 3 5 6 7 6 6 6 7 6 3 4 3 2 5 5 2 3 1 0 2 2 2 4 3 6 4 5 8 8 7 10 15 15 11 9 8 8 8 8 9 12 13 10 9 13 13 8 7 9 9 8 10 10 8 6 5 6 7 7 7 7
2 1 2 4 2 1 1 1 2 2 2 3 3 3 3 5 7 6 2 1 1 3 5 7 6 4 3 2 6 7 5 6 6 5 6 4 2 2 2 3 6 7 5 4 2 1 3 2 1 3 1 6 5 6 9 10 8 7 9 9 8 8 7 7 7 9 12 10 7 6 9 12 10 7 8 11 11 10 11 8 7 7 6 6 8 8 7 7
Wind_Direction
43 52 58 74 92 106 113 118 106 87 82 87 79 71 73 104 143 163 167 160 153 151 57 3 10 22 350 345 0 5 21 38 33 39 44 13 357 0 1 2 3 359 352 347 1 343 289 270 259 264 310 321 15 14 359 15 39 52 71 83 72 67 56 102 135 189 166 296 315 326 6 66 26 320 102 64 43 53 62 49 57 61 70 93 112 124 125 129
31 48 59 73 88 102 115 119 104 90 91 85 75 70 66 81 106 144 164 155 145 335 354 338 320 277 291 303 311 335 352 29 32 32 24 3 358 356 358 4 360 356 356 352 353 343 320 294 281 318 30 346 332 35 28 356 40 66 90 82 74 98 79 137 146 176 54 320 303 318 347 73 68 307 66 78 40 38 46 29 50 71 79 95 110 122 128 130
20 29 47 65 81 96 110 110 102 94 87 79 74 69 63 69 77 97 123 121 108 74 55 44 36 263 267 283 291 319 329 15 33 12 359 357 356 354 1 5 359 357 351 347 343 333 318 301 300 322 56 67 351 52 52 2 34 72 92 79 72 133 110 65 93 62 357 316 333 337 346 50 25 349 57 105 73 47 47 16 22 76 102 104 112 120 117 99
12 18 36 57 76 90 100 102 101 89 77 80 77 64 62 65 66 80 111 123 106 82 61 50 44 36 318 281 292 303 329 35 23 339 346 350 349 353 359 3 4 356 345 344 331 312 297 294 297 313 83 38 356 49 44 353 45 48 92 125 175 124 100 38 77 57 336 13 22 354 0 47 42 26 57 104 75 43 51 27 28 100 123 118 109 97 85 78
8 16 22 36 69 78 89 102 98 87 81 85 81 66 65 62 55 62 147 157 127 90 51 32 31 34 38 5 315 290 359 50 326 333 345 345 349 352 355 6 6 350 345 346 327 306 281 282 297 24 67 40 3 35 4 335 85 61 83 139 148 104 108 174 124 89 338 42 34 10 360 39 79 50 50 88 88 68 72 53 62 103 117 109 97 86 80 79
8 14 9 13 47 55 83 100 81 88 90 88 83 72 66 51 34 30 114 189 175 145 25 9 12 28 42 48 41 11 87 117 312 339 341 342 354 350 354 3 1 354 353 0 354 350 306 294 321 33 50 62 48 73 305 328 77 95 31 105 109 105 123 178 144 129 108 64 23 343 339 76 97 74 52 84 96 117 105 85 81 88 95 93 90 88 86 84
10 7 4 11 45 73 104 93 83 84 90 89 84 80 66 38 26 37 60 115 163 165 2 359 2 18 41 68 72 59 90 139 331 340 336 347 360 350 359 358 359 9 19 21 9 9 44 35 50 81 67 65 75 103 324 355 53 93 63 347 86 107 127 158 159 174 108 66 0 346 53 97 103 93 68 82 91 102 92 85 85 86 88 89 88 88 90 91
13 7 17 43 68 85 79 72 77 78 92 95 90 93 64 40 51 69 73 78 104 104 62 27 7 5 351 280 94 52 57 334 335 341 339 351 4 356 4 4 8 22 36 31 14 12 46 38 34 53 80 88 98 85 6 37 30 70 123 320 76 106 144 157 155 149 106 60 15 47 72 96 111 102 75 84 96 91 87 85 87 87 85 87 90 94 97 98
24 32 55 65 63 52 46 58 76 84 103 106 102 105 72 66 83 82 73 73 83 89 77 47 19 5 344 280 100 61 355 335 338 346 348 354 10 4 9 20 21 26 36 35 27 36 55 52 20 42 126 120 87 85 40 83 21 164 154 1 82 122 138 129 101 112 113 66 40 68 75 72 101 94 67 79 104 93 88 88 89 89 86 89 93 98 102 100
50 73 75 55 33 28 36 57 82 95 104 104 116 118 92 96 101 81 63 62 71 79 74 56 42 45 71 95 76 63 328 344 356 355 353 359 17 13 26 32 25 24 31 35 34 40 50 37 344 319 122 74 71 91 54 105 163 177 131 65 111 149 116 88 90 127 124 66 50 76 87 46 39 72 72 89 116 100 93 90 91 93 95 96 91 91 95 96
71 77 47 10 17 33 41 58 87 97 99 96 110 128 111 107 108 59 41 49 64 80 75 62 53 59 71 75 81 65 341 1 12 1 358 4 19 19 30 30 21 22 28 38 36 36 32 12 357 25 89 58 66 1 13 116 131 128 107 80 119 130 81 66 81 140 134 55 58 92 89 37 29 53 86 129 125 102 100 98 98 99 98 95 91 91 95 100
66 33 3 357 16 36 50 75 101 99 98 90 93 121 113 108 106 69 65 68 80 91 82 61 49 55 66 63 76 53 11 23 13 3 8 6 14 19 23 22 17 25 31 43 38 33 29 9 18 67 124 133 111 28 350 131 92 99 105 105 15 39 53 45 67 102 102 59 87 110 71 16 25 2 46 126 128 104 105 108 107 102 99 97 97 99 99 106
38 2 356 1 18 45 80 101 110 105 99 86 84 103 102 101 90 79 84 79 87 85 69 66 56 61 76 57 72 45 30 30 13 10 19 10 17 23 18 16 10 30 56 63 50 32 29 10 21 91 126 108 131 175 110 38 59 81 89 98 49 25 9 276 14 21 81 66 69 114 122 339 23 323 354 126 131 109 108 113 111 104 103 106 105 108 107 111
21 3 1 10 35 78 102 110 116 111 98 83 79 96 104 99 75 66 68 58 83 49 38 84 57 53 80 110 172 48 26 22 16 18 15 5 22 37 8 5 4 49 83 75 56 33 34 27 33 68 59 83 142 137 65 15 33 46 25 52 49 49 300 287 335 41 66 7 37 83 176 224 222 305 331 135 134 118 121 120 117 116 114 117 117 120 120 122
22 13 13 36 74 94 102 108 117 116 104 88 81 90 95 87 62 48 44 54 90 46 57 93 31 38 78 70 189 32 11 14 15 16 7 358 19 20 347 0 17 60 65 56 50 21 35 41 47 53 351 4 64 70 47 12 19 33 38 344 352 41 302 300 326 58 59 296 33 73 155 231 210 274 308 130 131 122 127 129 127 127 125 129 132 132 133 139
34 30 38 80 99 97 97 98 95 102 123 103 79 74 60 24 348 15 54 87 82 54 64 59 11 76 105 10 305 7 3 5 5 9 3 358 25 7 349 6 27 41 30 27 5 334 4 49 55 51 18 9 40 74 55 28 358 1 68 320 314 352 327 318 330 48 52 357 16 62 145 228 217 262 307 113 132 126 129 134 134 134 137 140 145 145 147 149
48 50 68 95 101 96 95 91 85 85 91 98 89 74 62 45 5 326 142 116 81 56 61 41 30 98 93 352 348 342 335 339 352 5 5 4 25 5 1 30 22 354 340 343 339 332 352 52 56 37 38 25 15 83 63 24 335 332 37 52 288 325 332 315 303 318 34 39 2 38 112 173 197 248 315 107 136 132 134 141 142 144 147 148 153 159 161 159
58 70 87 95 96 93 96 95 88 83 84 87 83 71 62 52 49 56 92 157 136 42 56 26 34 88 23 355 353 315 316 323 352 7 10 16 349 353 360 357 339 334 345 359 360 8 19 26 54 59 33 27 23 55 75 59 267 282 310 345 299 317 315 286 284 295 14 26 354 23 97 166 189 228 316 100 135 132 140 146 144 146 147 151 160 167 170 171
60 74 100 101 90 95 106 108 93 78 64 39 7 341 328 4 47 52 50 62 73 56 74 337 17 111 293 329 323 318 315 311 357 9 12 12 340 341 339 299 311 3 22 37 10 19 48 25 40 49 6 12 30 69 118 193 215 230 252 259 269 291 281 267 280 285 3 10 311 283 157 178 189 209 273 116 128 127 136 135 131 137 142 151 163 172 175 185
56 61 74 72 75 218 237 267 292 297 300 304 306 321 328 334 22 24 29 47 72 104 128 268 354 91 335 309 324 338 335 281 6 11 9 2 338 352 11 326 16 42 48 114 35 12 72 61 44 47 334 326 340 110 128 226 238 228 261 280 271 283 281 275 289 305 16 27 272 246 155 170 185 202 230 219 123 135 139 136 138 145 152 164 174 188 194 203
51 51 56 55 36 283 281 289 302 298 297 300 301 341 122 129 64 230 340 35 29 42 73 311 11 74 336 296 331 350 6 251 351 8 7 3 359 17 356 10 52 35 11 124 96 11 56 75 55 259 251 293 300 115 68 343 265 226 232 246 278 295 293 290 287 307 23 42 277 270 163 187 193 201 226 124 127 162 165 150 154 163 171 185 186 199 214 216
47 44 46 46 50 28 333 327 340 332 55 83 81 87 129 145 121 138 139 79 2 3 26 7 33 28 333 4 354 354 52 12 344 357 2 5 33 35 343 36 65 46 344 64 80 17 41 83 240 262 318 6 2 45 31 7 355 191 189 176 295 294 304 307 302 311 8 43 279 283 252 220 202 198 224 191 156 201 187 162 170 176 180 202 198 202 219 233
41 40 40 36 42 41 28 21 4 16 77 102 105 104 115 120 122 127 93 100 354 344 21 22 37 5 345 28 11 9 58 33 346 335 354 4 30 38 39 52 58 50 17 43 104 85 62 217 250 294 11 33 47 36 26 17 25 133 146 104 294 293 1 303 302 316 316 271 242 285 290 242 196 196 259 250 225 236 193 164 174 181 184 200 196 188 194 219
35 33 35 31 33 33 27 28 30 63 85 107 109 108 119 119 115 113 84 95 18 308 299 284 132 47 347 1 4 17 73 43 20 327 351 12 27 7 61 91 62 50 47 70 96 99 104 232 249 31 26 66 90 33 32 42 8 310 187 159 269 294 258 231 272 316 320 302 225 5 326 278 201 201 241 262 257 230 217 178 195 211 201 198 182 181 202 220
29 24 24 24 21 9 6 32 72 95 98 107 114 112 109 111 73 49 91 74 1 294 315 282 199 28 327 340 350 24 118 45 27 326 353 27 35 6 47 118 81 79 135 98 85 88 99 237 37 40 22 54 81 38 33 80 12 321 252 203 243 283 274 263 297 339 352 335 316 46 357 298 228 207 228 236 229 235 227 207 217 231 224 212 199 215 235 246
23 19 16 12 10 3 346 39 99 114 111 109 128 130 93 89 80 64 90 61 342 289 343 272 214 0 340 349 344 137 102 2 281 330 13 31 27 95 67 344 77 125 170 119 85 105 25 356 32 56 47 44 55 45 210 113 74 343 257 224 234 264 272 276 305 20 42 289 276 67 150 273 278 233 226 196 208 239 236 226 226 227 226 216 211 229 238 249
20 15 8 357 352 352 327 203 167 148 137 175 170 158 107 103 86 45 67 47 330 269 56 265 239 22 337 345 0 120 107 308 293 357 20 25 358 107 83 3 57 96 182 106 60 291 318 3 19 38 70 54 40 347 266 122 93 278 273 305 299 293 284 273 270 186 212 276 297 333 137 242 286 271 222 170 203 247 243 238 236 229 225 213 215 228 224 232
20 12 3 349 336 332 320 163 175 186 222 195 186 188 196 153 286 20 80 72 307 61 60 284 349 27 331 359 29 103 187 304 63 344 349 29 13 47 78 38 139 194 321 107 139 266 7 20 12 48 56 43 20 279 252 117 94 262 277 313 303 287 279 261 208 206 255 3 324 319 61 257 273 286 59 142 214 257 248 236 233 230 224 213 219 226 224 242
23 10 359 337 313 305 170 166 196 231 219 187 185 212 235 218 338 50 77 129 299 41 29 321 32 327 343 13 19 52 31 15 105 299 329 30 17 32 91 69 133 141 358 86 151 218 157 194 189 125 80 350 275 268 221 144 210 275 299 314 305 298 277 210 147 169 25 35 271 271 64 21 274 274 72 141 239 255 248 237 231 227 221 217 223 225 233 252
27 17 6 343 291 221 174 201 235 205 182 177 184 212 230 303 60 61 49 244 339 356 251 33 11 328 17 35 353 6 31 7 340 330 347 23 13 25 89 210 91 100 17 40 82 223 296 294 188 134 134 232 260 274 212 178 236 318 345 324 322 359 41 68 89 89 59 336 254 214 131 83 301 279 210 194 224 219 209 224 229 221 220 223 226 225 238 249
26 23 16 6 316 228 234 225 191 177 166 168 185 195 52 23 60 90 185 250 66 307 339 19 344 5 33 57 349 352 18 344 338 19 11 8 13 11 22 10 36 63 22 13 28 336 333 355 323 271 276 248 322 306 279 209 339 1 356 334 348 353 15 25 3 38 58 290 250 184 120 341 272 271 240 220 228 202 177 191 207 215 222 225 226 229 242 247
21 20 16 15 17 274 232 170 168 164 154 160 178 67 72 42 20 149 245 320 4 293 62 13 315 32 32 40 26 332 344 344 355 50 35 32 41 18 44 73 275 34 359 328 353 333 312 300 294 312 311 334 49 346 335 351 18 23 3 20 29 358 5 9 341 7 273 264 233 155 25 345 236 253 246 226 227 214 205 202 202 214 221 223 228 235 247 255
14 16 14 13 20 45 128 143 157 151 142 145 99 45 76 81 285 224 260 334 276 274 107 130 323 75 64 36 6 318 346 350 350 35 82 101 74 30 28 34 45 88 279 282 14 357 328 306 318 351 318 310 91 83 351 327 352 5 14 58 69 42 13 335 306 336 298 271 262 89 53 295 271 274 234 218 219 211 212 215 212 215 214 216 222 233 253 260
5 13 11 9 21 52 100 117 145 132 103 89 69 54 71 123 240 214 260 254 232 331 78 122 4 47 60 69 284 310 48 324 328 26 31 55 51 3 333 345 3 37 62 59 45 41 15 312 277 165 264 358 78 126 162 172 307 303 174 111 106 116 84 293 273 296 298 290 295 359 101 218 274 288 223 217 220 210 217 225 218 219 218 215 229 251 259 253
357 5 6 10 16 17 43 72 159 116 79 67 64 67 108 216 237 182 226 243 230 17 325 25 71 62 15 347 298 316 96 248 331 42 31 49 82 15 324 322 336 20 77 72 314 147 96 265 236 204 302 70 71 203 143 115 308 276 119 87 63 187 151 165 234 234 255 310 300 300 196 217 238 270 260 255 247 232 236 231 215 228 235 229 250 259 248 240
352 353 355 5 7 0 350 332 127 101 76 76 67 84 194 222 226 176 202 227 163 159 122 13 69 91 320 313 332 338 22 253 347 41 27 69 148 182 148 263 304 25 95 123 176 27 20 275 250 5 6 64 169 229 116 104 200 355 50 80 235 175 130 122 278 279 66 23 280 285 285 290 315 305 320 6 302 261 250 236 221 231 240 241 253 255 242 234
354 346 324 339 354 359 358 346 109 103 65 81 94 201 212 214 193 181 215 322 171 130 105 92 351 118 211 268 305 307 333 326 349 47 343 29 136 172 140 242 264 65 146 145 149 183 129 291 271 187 34 271 232 96 56 63 123 94 104 209 191 93 93 103 309 329 29 243 270 293 289 301 328 313 317 331 280 265 258 245 232 239 251 255 256 253 236 220
356 343 309 324 339 350 58 43 107 95 65 75 110 232 193 176 190 173 199 67 113 80 92 153 217 149 187 184 256 280 311 327 344 50 155 234 280 158 135 248 275 276 246 179 69 153 114 318 289 230 136 272 352 53 21 329 50 120 170 168 103 86 1 19 1 332 344 301 289 288 284 287 258 245 277 264 246 252 258 246 233 241 246 246 249 239 228 216
0 6 327 330 346 30 65 76 95 73 65 84 202 233 162 179 272 230 192 124 96 91 97 203 211 81 185 167 189 264 298 188 191 71 138 200 272 143 133 196 255 6 329 82 116 243 89 109 284 324 66 329 17 54 203 284 342 20 44 25 49 136 171 188 175 182 211 288 296 308 311 294 231 209 231 252 250 244 243 238 232 233 228 229 232 222 217 210
12 65 323 333 18 71 68 72 68 58 69 146 198 199 111 184 269 289 243 177 178 144 133 213 174 100 214 194 179 218 175 167 173 130 185 175 131 138 123 133 149 351 355 35 86 298 45 118 245 310 347 352 324 223 188 184 187 52 49 358 316 41 126 183 206 168 149 179 252 310 309 285 254 208 219 252 261 234 212 214 223 224 225 224 215 207 209 199
37 85 307 335 36 121 60 56 50 59 101 134 160 136 62 153 170 313 304 355 96 188 159 164 164 156 168 170 193 197 130 185 182 155 232 196 92 114 226 121 179 243 359 30 44 6 34 143 217 290 318 282 239 222 195 191 178 159 162 188 186 135 101 57 298 279 122 155 182 169 289 279 269 210 217 241 242 210 191 197 215 223 226 224 212 206 202 182
60 108 312 344 231 191 58 56 12 45 105 130 130 141 86 107 112 314 307 12 57 157 45 95 157 136 131 159 194 172 118 251 221 178 204 194 156 191 238 3 258 206 94 92 305 286 144 112 145 267 265 245 245 251 206 205 157 146 162 168 153 134 124 140 241 259 248 232 189 126 253 271 259 198 212 224 207 190 184 193 213 225 220 212 212 209 187 172
96 183 321 16 80 146 71 57 335 20 64 233 250 329 6 87 109 195 310 18 50 98 24 31 140 60 128 171 146 144 147 189 199 187 182 184 184 217 317 15 22 41 77 130 204 309 52 95 74 280 286 295 296 308 340 22 57 118 240 160 148 152 141 154 177 172 195 243 198 125 239 268 271 220 212 211 197 198 205 209 217 227 223 212 211 203 174 173
146 209 334 34 32 63 85 151 233 52 272 284 45 1 329 67 111 129 169 251 164 129 92 160 212 98 178 125 100 155 204 114 175 191 157 167 189 275 3 5 12 109 132 177 179 280 282 151 94 340 329 338 348 344 336 344 45 219 243 188 153 122 106 111 112 89 320 230 177 153 242 263 266 202 196 237 251 262 265 236 217 219 228 225 212 194 179 184
67 9 323 7 20 51 114 181 153 143 189 126 86 226 3 35 226 172 159 182 191 158 149 215 184 124 100 64 67 65 284 52 272 314 63 128 253 284 14 332 335 142 209 268 83 109 211 191 128 102 316 303 309 309 298 275 234 234 213 181 167 133 133 145 105 94 243 228 164 166 246 273 283 263 249 269 273 283 284 249 225 232 230 216 204 189 188 191
73 11 312 335 9 51 60 109 109 120 165 144 115 213 139 95 282 230 131 136 219 154 142 225 128 96 62 64 77 277 282 13 19 96 158 209 256 269 188 169 54 145 185 292 25 91 87 262 205 186 203 224 247 258 259 340 283 272 254 210 190 174 160 138 112 168 204 193 192 222 240 275 290 290 293 296 293 297 296 277 251 246 230 213 203 196 196 189
96 183 202 329 342 31 24 14 74 103 167 150 125 192 160 155 293 329 41 245 209 133 108 130 137 145 166 145 144 229 224 38 41 173 209 205 226 296 268 159 128 165 170 247 330 105 86 300 245 210 228 238 250 267 278 296 274 265 262 233 195 185 169 160 193 212 167 103 265 249 223 251 282 290 296 299 301 304 303 294 267 236 219 213 203 196 195 182
82 169 152 137 257 59 29 6 88 98 106 115 101 153 155 157 198 197 225 317 342 160 124 334 237 208 193 174 155 191 204 280 262 226 213 192 196 343 338 273 232 183 152 34 340 111 119 259 245 202 253 257 252 266 271 266 259 256 253 241 214 189 182 197 219 220 172 209 258 266 261 261 276 286 289 290 296 298 296 290 256 211 207 211 212 214 205 191
71 92 279 39 151 188 203 294 103 104 101 99 86 173 166 176 215 222 183 79 350 290 175 210 259 236 207 191 145 158 203 212 255 248 196 177 197 153 188 257 255 124 101 60 331 110 126 247 239 198 284 280 255 256 261 251 255 261 250 237 220 203 199 209 228 226 210 234 254 267 278 275 272 275 279 285 288 285 286 282 243 234 238 228 238 248 226 206
97 163 200 49 56 169 234 346 93 102 88 74 93 232 182 176 207 226 172 137 177 266 179 203 247 235 201 184 152 180 220 194 194 231 178 151 222 205 196 208 154 107 39 141 271 299 155 260 241 122 318 295 274 271 270 243 248 270 270 254 225 216 217 223 235 233 225 246 256 264 275 276 271 267 268 275 280 281 281 275 263 258 251 247 260 257 233 221
150 161 148 103 62 326 322 5 99 110 104 267 196 215 206 199 200 189 174 174 172 181 185 195 212 189 122 169 187 222 238 194 187 213 184 169 212 207 199 194 141 136 187 192 179 169 177 266 338 57 2 284 286 345 327 303 282 273 276 269 240 217 219 222 223 209 202 231 256 270 271 268 270 268 261 267 274 279 279 276 274 267 247 245 258 254 236 223
146 120 116 104 82 279 172 99 73 110 214 237 194 184 215 236 210 169 155 293 140 155 184 183 170 128 96 221 224 226 221 190 192 208 187 169 154 141 149 156 141 140 165 176 163 160 158 164 5 58 330 270 295 340 325 319 318 284 261 247 219 207 220 236 240 217 205 211 240 255 252 263 282 296 291 287 284 280 276 269 265 264 251 239 242 242 234 221